TimeMST,TemperatureF,Dew PointF,Humidity,Sea Level PressureIn,VisibilityMPH,Wind Direction,Wind SpeedMPH,Gust SpeedMPH,PrecipitationIn,Events,Conditions,WindDirDegrees,DateUTC
12:53 AM,39.9,19.9,45,29.84,10.0,Calm,Calm,-,N/A,,Clear,0,2012-11-09 07:53:00
1:53 AM,39.0,21.0,49,29.85,10.0,East,4.6,-,N/A,,Clear,80,2012-11-09 08:53:00
2:53 AM,37.0,19.9,50,29.86,10.0,Calm,Calm,-,N/A,,Mostly Cloudy,0,2012-11-09 09:53:00
3:53 AM,45.0,19.9,37,29.86,10.0,SW,3.5,-,N/A,,Overcast,230,2012-11-09 10:53:00
4:53 AM,43.0,21.0,42,29.85,10.0,East,6.9,-,0.00,,Overcast,80,2012-11-09 11:53:00
5:53 AM,37.0,21.0,52,29.88,10.0,WNW,6.9,-,N/A,,Clear,300,2012-11-09 12:53:00
6:53 AM,39.0,24.1,55,29.88,10.0,NNE,5.8,-,N/A,,Clear,30,2012-11-09 13:53:00
7:53 AM,48.9,30.9,50,29.88,10.0,NNW,3.5,-,N/A,,Clear,340,2012-11-09 14:53:00
8:53 AM,54.0,30.9,41,29.89,10.0,West,4.6,-,N/A,,Mostly Cloudy,270,2012-11-09 15:53:00
9:53 AM,55.9,32.0,40,29.90,10.0,SW,10.4,-,N/A,,Overcast,230,2012-11-09 16:53:00
10:53 AM,57.0,30.9,37,29.88,10.0,WSW,16.1,21.9,N/A,,Mostly Cloudy,240,2012-11-09 17:53:00
11:53 AM,54.0,32.0,43,29.86,10.0,WSW,18.4,24.2,0.00,Rain,Light Rain,240,2012-11-09 18:53:00
12:53 PM,48.9,42.1,77,29.85,10.0,WSW,9.2,-,0.01,Rain,Light Rain,250,2012-11-09 19:53:00
1:53 PM,55.0,37.9,53,29.78,10.0,SW,8.1,-,0.00,,Clear,230,2012-11-09 20:53:00
2:53 PM,50.0,43.0,77,29.82,10.0,SW,17.3,21.9,0.01,Rain,Light Rain,230,2012-11-09 21:53:00
3:53 PM,48.9,44.1,83,29.78,10.0,South,6.9,-,0.00,,Overcast,190,2012-11-09 22:53:00
4:53 PM,48.0,43.0,83,29.78,10.0,South,3.5,-,N/A,,Scattered Clouds,170,2012-11-09 23:53:00
5:53 PM,48.0,43.0,83,29.81,10.0,SE,10.4,-,N/A,,Overcast,140,2012-11-10 00:53:00
6:53 PM,48.0,42.1,80,29.79,10.0,SE,9.2,-,0.00,Rain,Light Rain,140,2012-11-10 01:53:00
7:53 PM,46.9,43.0,86,29.75,10.0,SE,6.9,-,0.01,Rain,Light Rain,140,2012-11-10 02:53:00
8:53 PM,46.9,42.1,83,29.74,10.0,South,3.5,-,0.01,,Mostly Cloudy,170,2012-11-10 03:53:00
9:53 PM,46.0,42.1,86,29.74,10.0,SE,6.9,-,0.00,Rain,Light Rain,140,2012-11-10 04:53:00
10:53 PM,44.1,41.0,89,29.71,10.0,ESE,5.8,-,N/A,,Scattered Clouds,120,2012-11-10 05:53:00
11:53 PM,43.0,39.0,86,29.70,10.0,Calm,Calm,-,N/A,,Mostly Cloudy,0,2012-11-10 06:53:00